Regional Weather Roundup
Issued by NWS Little Rock, AR

Home | Current Version | Previous Version | Graphics & Text | Print | Product List | Glossary On
Versions: 1 2 3 4 5 6 7 8 9 10 11 12 13 14 15 16 17 18 19 20 21 22 23 24 25 26 27 28 29 30 31 32 33 34 35 36 37 38 39 40 41 42 43 44 45 46 47 48 49 50
000
ASUS44 KLZK 171305
RWRLZK

WEATHER ROUNDUP FOR ARKANSAS
NATIONAL WEATHER SERVICE LITTLE ROCK AR
800 AM CDT WED SEP 17 2014

NOTE: "FAIR" INDICATES FEW OR NO CLOUDS BELOW 12,000 FEET WITH NO
SIGNIFICANT WEATHER AND/OR OBSTRUCTIONS TO VISIBILITY.

ARZ001-003-010-029-171400-
NORTHWEST ARKANSAS

CITY           SKY/WX    TMP DP  RH WIND       PRES   REMARKS
FAYETTEVILLE   PTSUNNY   68  67  96 SW3       29.99S
FORT SMITH     CLOUDY    70  67  90 E9        29.99R FOG
HARRISON       CLOUDY    66  66 100 SE6       29.98S FOG
BENTONVILLE    CLOUDY    68  66  94 SW10      29.99R
ROGERS         CLOUDY    67  66  97 SW12      29.99S FOG
SILOAM SPGS    CLOUDY    68  63  83 S9        30.00R
HIGHFILL       CLOUDY    67  67 100 SW8       29.99R FOG
SPRINGDALE     PTSUNNY   68  68 100 SW3       30.01R FOG
$$

ARZ004-005-016-171400-
NORTH CENTRAL ARKANSAS

CITY           SKY/WX    TMP DP  RH WIND       PRES   REMARKS
BATESVILLE     CLOUDY    63  59  88 SE5       30.03S
FLIPPIN        CLOUDY    64  59  82 SE3       29.99S
MTN HOME       CLOUDY    63  61  93 SE7       30.00R FOG
$$

ARZ040-041-171400-
WEST CENTRAL ARKANSAS

CITY           SKY/WX    TMP DP  RH WIND       PRES   REMARKS
MENA             N/A     70  70 100 CALM        N/A
MOUNT IDA      FOG       66  65  96 CALM      30.00R VSB 1
$$

ARZ009-017-025-026-028-171400-
NORTHEAST ARKANSAS

CITY           SKY/WX    TMP DP  RH WIND       PRES   REMARKS
CORNING          N/A     61  55  82 E5        30.04R
JONESBORO      CLOUDY    62  57  83 E6        30.04R
NEWPORT        CLOUDY    63  60  90 NE3       30.05R
WALNUT RIDGE   CLOUDY    63  55  77 E3        30.03R
BLYTHEVILLE    CLOUDY    61  57  87 E5        30.03S
$$

ARZ022-023-033-042-044-171400-
CENTRAL ARKANSAS

CITY           SKY/WX    TMP DP  RH WIND       PRES   REMARKS
LITTLE ROCK    PTSUNNY   65  59  81 NE3       30.02S
N LITTLE ROCK    N/A     64  62  93 E5        30.02S
JACKSONVILLE   PTSUNNY   64  61  90 NE3       30.02R
SEARCY         CLOUDY    64  60  87 NE3       30.03S
HOT SPRINGS    SUNNY     65  61  87 SE3       30.02R
RUSSELLVILLE     N/A    N/A N/A N/A MISG      30.02R
CLINTON        CLOUDY    63  63 100 CALM      30.03S FOG
$$

ARZ036-171400-
EAST ARKANSAS

CITY           SKY/WX    TMP DP  RH WIND       PRES   REMARKS
WEST MEMPHIS   PTSUNNY   64  62  93 E3        30.01S
$$

ARZ050-053-066-070-073-171400-
SOUTHWEST ARKANSAS

CITY           SKY/WX    TMP DP  RH WIND       PRES   REMARKS
ARKADELPHIA    FAIR      66  64  93 NE5       30.01R
CAMDEN         FOG       66  64  94 CALM      30.00R VSB<1/4
TEXARKANA      FOG       69  69 100 VRB3      29.99R VSB<1/4
EL DORADO      FOG       68  68 100 NE3       30.00R VSB 1/4
DE QUEEN       CLOUDY    68  68 100 E5        29.98S FOG
$$

ARZ056-057-069-171400-
SOUTHEAST ARKANSAS

CITY           SKY/WX    TMP DP  RH WIND       PRES   REMARKS
PINE BLUFF     SUNNY     64  62  93 NE3       30.01R
STUTTGART      SUNNY     64  59  82 NE5       30.01S
MONTICELLO     FOG       68  66  93 E6        30.00R VSB 1/2

$$





USA.gov is the U.S. government's official web portal to all federal, state and local government web resources and services.